TimeCDT,TemperatureF,Dew PointF,Humidity,Sea Level PressureIn,VisibilityMPH,Wind Direction,Wind SpeedMPH,Gust SpeedMPH,PrecipitationIn,Events,Conditions,WindDirDegrees,DateUTC
12:13 AM,35.6,35.6,100,29.71,1.5,Calm,Calm,-,N/A,,Overcast,0,2012-10-20 05:13:00
12:33 AM,35.6,35.6,100,29.71,1.0,Calm,Calm,-,N/A,,Overcast,0,2012-10-20 05:33:00
12:52 AM,35.6,35.6,100,29.71,4.0,Calm,Calm,-,N/A,,Overcast,0,2012-10-20 05:52:00
1:13 AM,35.6,35.6,100,29.72,0.2,Calm,Calm,-,N/A,Fog,Fog,0,2012-10-20 06:13:00
1:32 AM,35.6,35.6,100,29.72,0.8,Calm,Calm,-,N/A,,Overcast,0,2012-10-20 06:32:00
1:53 AM,35.6,35.6,100,29.72,0.2,Calm,Calm,-,N/A,Fog,Fog,0,2012-10-20 06:53:00
2:13 AM,35.6,35.6,100,29.72,0.2,Calm,Calm,-,N/A,Fog,Fog,0,2012-10-20 07:13:00
2:32 AM,33.8,33.8,100,29.72,0.2,Calm,Calm,-,N/A,Fog,Fog,0,2012-10-20 07:32:00
2:53 AM,33.8,33.8,100,29.72,0.2,Calm,Calm,-,N/A,Fog,Fog,0,2012-10-20 07:53:00
3:13 AM,33.8,33.8,100,29.72,0.5,Calm,Calm,-,N/A,Fog,Fog,0,2012-10-20 08:13:00
3:32 AM,32.0,32.0,100,29.72,1.5,Calm,Calm,-,N/A,,Overcast,0,2012-10-20 08:32:00
3:53 AM,32.0,32.0,100,29.73,0.5,Calm,Calm,-,N/A,Fog,Fog,0,2012-10-20 08:53:00
4:13 AM,32.0,32.0,100,29.72,0.2,Calm,Calm,-,N/A,Fog,Fog,0,2012-10-20 09:13:00
4:32 AM,32.0,32.0,100,29.72,0.2,Calm,Calm,-,N/A,Fog,Fog,0,2012-10-20 09:32:00
4:53 AM,30.2,30.2,100,29.73,0.5,Calm,Calm,-,N/A,Fog,Light Freezing Fog,0,2012-10-20 09:53:00
5:13 AM,30.2,30.2,100,29.73,1.8,Calm,Calm,-,N/A,,Mostly Cloudy,0,2012-10-20 10:13:00
5:32 AM,30.2,30.2,100,29.74,2.5,Calm,Calm,-,N/A,,Mostly Cloudy,0,2012-10-20 10:32:00
5:53 AM,30.2,30.2,100,29.74,0.2,Calm,Calm,-,N/A,Fog,Light Freezing Fog,0,2012-10-20 10:53:00
6:13 AM,30.2,30.2,100,29.74,0.2,Calm,Calm,-,N/A,Fog,Light Freezing Fog,0,2012-10-20 11:13:00
6:32 AM,30.2,30.2,100,29.75,0.2,Calm,Calm,-,N/A,Fog,Light Freezing Fog,0,2012-10-20 11:32:00
6:53 AM,30.2,30.2,100,29.75,0.2,Calm,Calm,-,N/A,Fog,Light Freezing Fog,0,2012-10-20 11:53:00
7:13 AM,30.2,30.2,100,29.76,1.2,Calm,Calm,-,N/A,,Mostly Cloudy,0,2012-10-20 12:13:00
7:33 AM,30.2,30.2,100,29.76,0.5,Calm,Calm,-,N/A,Fog,Light Freezing Fog,0,2012-10-20 12:33:00
7:53 AM,30.2,30.2,100,29.76,0.5,Calm,Calm,-,N/A,Fog,Light Freezing Fog,0,2012-10-20 12:53:00
8:13 AM,30.2,30.2,100,29.76,0.2,Calm,Calm,-,N/A,Fog,Light Freezing Fog,0,2012-10-20 13:13:00
8:32 AM,30.2,30.2,100,29.76,0.2,Calm,Calm,-,N/A,Fog,Light Freezing Fog,0,2012-10-20 13:32:00
8:53 AM,30.2,30.2,100,29.76,0.5,Calm,Calm,-,N/A,Fog,Light Freezing Fog,0,2012-10-20 13:53:00
9:13 AM,30.2,30.2,100,29.76,0.2,Calm,Calm,-,N/A,Fog,Light Freezing Fog,0,2012-10-20 14:13:00
9:33 AM,32.0,32.0,100,29.76,0.2,Calm,Calm,-,N/A,Fog,Fog,0,2012-10-20 14:33:00
9:53 AM,33.8,33.8,100,29.75,0.2,Calm,Calm,-,N/A,Fog,Fog,0,2012-10-20 14:53:00
10:13 AM,35.6,35.6,100,29.76,0.5,Calm,Calm,-,N/A,Fog,Fog,0,2012-10-20 15:13:00
10:32 AM,37.4,37.4,100,29.76,1.2,Calm,Calm,-,N/A,,Overcast,0,2012-10-20 15:32:00
10:53 AM,42.8,41.0,93,29.76,10.0,Calm,Calm,-,N/A,,Scattered Clouds,0,2012-10-20 15:53:00
11:13 AM,44.6,42.8,93,29.75,10.0,Calm,Calm,-,N/A,,Clear,0,2012-10-20 16:13:00
11:33 AM,44.6,42.8,93,29.75,10.0,Calm,Calm,-,N/A,,Clear,0,2012-10-20 16:33:00
11:53 AM,44.6,42.8,93,29.75,10.0,Calm,Calm,-,N/A,,Scattered Clouds,0,2012-10-20 16:53:00
12:13 PM,46.4,42.8,87,29.75,10.0,Calm,Calm,-,N/A,,Mostly Cloudy,0,2012-10-20 17:13:00
12:33 PM,46.4,42.8,87,29.74,10.0,Calm,Calm,-,N/A,,Mostly Cloudy,0,2012-10-20 17:33:00
12:53 PM,48.2,39.2,71,29.74,10.0,Calm,Calm,-,N/A,,Scattered Clouds,0,2012-10-20 17:53:00
1:13 PM,51.8,39.2,62,29.74,10.0,SSW,6.9,-,N/A,,Mostly Cloudy,200,2012-10-20 18:13:00
1:33 PM,53.6,37.4,54,29.74,10.0,SW,8.1,-,N/A,,Mostly Cloudy,230,2012-10-20 18:33:00
1:52 PM,51.8,35.6,54,29.73,10.0,SW,5.8,-,N/A,,Scattered Clouds,230,2012-10-20 18:52:00
2:13 PM,51.8,35.6,54,29.72,10.0,SSW,4.6,-,N/A,,Scattered Clouds,200,2012-10-20 19:13:00
2:33 PM,51.8,35.6,54,29.72,10.0,SW,5.8,-,N/A,,Mostly Cloudy,230,2012-10-20 19:33:00
2:52 PM,53.6,35.6,51,29.72,10.0,Calm,Calm,-,N/A,,Scattered Clouds,0,2012-10-20 19:52:00
3:13 PM,51.8,35.6,54,29.72,10.0,South,3.5,-,N/A,,Scattered Clouds,190,2012-10-20 20:13:00
3:33 PM,51.8,35.6,54,29.73,10.0,South,4.6,-,N/A,,Mostly Cloudy,170,2012-10-20 20:33:00
3:53 PM,51.8,35.6,54,29.73,10.0,SW,8.1,-,N/A,,Mostly Cloudy,230,2012-10-20 20:53:00
4:13 PM,53.6,35.6,51,29.72,10.0,South,4.6,-,N/A,,Mostly Cloudy,170,2012-10-20 21:13:00
4:33 PM,51.8,35.6,54,29.72,10.0,SW,5.8,-,N/A,,Mostly Cloudy,230,2012-10-20 21:33:00
4:52 PM,51.8,35.6,54,29.73,10.0,SSW,6.9,-,N/A,,Clear,200,2012-10-20 21:52:00
5:13 PM,51.8,35.6,54,29.72,10.0,South,3.5,-,N/A,,Clear,170,2012-10-20 22:13:00
5:33 PM,50.0,35.6,58,29.73,10.0,Calm,Calm,-,N/A,,Clear,0,2012-10-20 22:33:00
5:53 PM,48.2,35.6,62,29.73,10.0,South,3.5,-,N/A,,Clear,180,2012-10-20 22:53:00
6:13 PM,48.2,35.6,62,29.73,10.0,Calm,Calm,-,N/A,,Clear,0,2012-10-20 23:13:00
6:33 PM,46.4,35.6,66,29.73,10.0,Calm,Calm,-,N/A,,Clear,0,2012-10-20 23:33:00
6:53 PM,44.6,35.6,71,29.74,10.0,South,3.5,-,N/A,,Clear,180,2012-10-20 23:53:00
7:13 PM,44.6,35.6,71,29.74,10.0,South,4.6,-,N/A,,Clear,170,2012-10-21 00:13:00
7:33 PM,39.2,35.6,87,29.74,10.0,SSE,3.5,-,N/A,,Clear,160,2012-10-21 00:33:00
7:53 PM,42.8,35.6,76,29.74,10.0,SSE,4.6,-,N/A,,Clear,160,2012-10-21 00:53:00
8:13 PM,39.2,35.6,87,29.74,10.0,SE,4.6,-,N/A,,Clear,140,2012-10-21 01:13:00
8:33 PM,42.8,37.4,81,29.75,10.0,South,4.6,-,N/A,,Clear,180,2012-10-21 01:33:00
8:53 PM,41.0,35.6,81,29.75,10.0,South,3.5,-,N/A,,Clear,170,2012-10-21 01:53:00
9:13 PM,41.0,35.6,81,29.76,10.0,South,3.5,-,N/A,,Clear,170,2012-10-21 02:13:00
9:33 PM,41.0,35.6,81,29.76,10.0,Calm,Calm,-,N/A,,Clear,0,2012-10-21 02:33:00
9:53 PM,39.2,35.6,87,29.76,10.0,SSE,3.5,-,N/A,,Clear,150,2012-10-21 02:53:00
10:13 PM,39.2,35.6,87,29.77,10.0,SSE,3.5,-,N/A,,Clear,160,2012-10-21 03:13:00
10:33 PM,39.2,35.6,87,29.77,10.0,SSE,3.5,-,N/A,,Clear,160,2012-10-21 03:33:00
10:53 PM,39.2,35.6,87,29.77,10.0,South,4.6,-,N/A,,Clear,170,2012-10-21 03:53:00
11:13 PM,39.2,35.6,87,29.77,10.0,SSE,4.6,-,N/A,,Clear,160,2012-10-21 04:13:00
11:33 PM,39.2,35.6,87,29.78,10.0,SSE,4.6,-,N/A,,Clear,160,2012-10-21 04:33:00
11:53 PM,37.4,35.6,93,29.77,10.0,SSE,4.6,-,N/A,,Clear,150,2012-10-21 04:53:00